Location: Brachstadt
(48.6975°N, 10.6755°E)
Time: 15:49:02
(UTC+00:00)

Cosmos 990 Rocket - Pass Details

Date: 18 September 2020
Orbit: 746 x 769 km, 74.0° (Epoch: 24 October)

Event Time Altitude Azimuth Distance (km) Brightness Sun altitude
Rises 17:57:30 0° 196° (SSW) 3,178 7.3 -6.5°
Reaches altitude 10° 17:59:50 10° 195° (SSW) 2,258 6.5 -6.9°
Maximum altitude 18:04:57 77° 110° (ESE) 771 3.9 -7.7°
Drops below altitude 10° 18:10:06 10° 26° (NNE) 2,277 6.3 -8.5°
Sets 18:12:28 0° 25° (NNE) 3,208 7.1 -8.9°
